This is the latest recevied weather packets stored in our database for station/object AA8FM-13. If no packets are shown the sender has not sent any weather packets the latest 10 day(s).
| Time | Temp. | Humidity | Pressure | Rain* | Wind** | Luminosity | Snow |
|---|---|---|---|---|---|---|---|
| 1778095297 | 12.78° C | 98% | 1007.8 hPa | 0 mm | - | 72 W/m² | - |
| 1778094994 | 12.78° C | 98% | 1007.8 hPa | 0 mm | - | 63 W/m² | - |
| 1778094690 | 12.78° C | 99% | 1007.7 hPa | 0 mm | - | 59 W/m² | - |
| 1778094387 | 12.78° C | 99% | 1007.6 hPa | 0 mm | - | 82 W/m² | - |
| 1778094084 | 12.78° C | 99% | 1007.4 hPa | 0 mm | - | 79 W/m² | - |
| 1778093781 | 12.78° C | 99% | 1007.5 hPa | 0 mm | - | 60 W/m² | - |
| 1778093477 | 12.78° C | 99% | 1007.6 hPa | 0 mm | - | 52 W/m² | - |
| 1778093175 | 12.78° C | 99% | 1007.5 hPa | 0 mm | - | 55 W/m² | - |
| 1778092872 | 13.33° C | 99% | 1007.5 hPa | 0 mm | - | 37 W/m² | - |
| 1778092569 | 13.89° C | 99% | 1007.3 hPa | 0 mm | - | 83 W/m² | - |
| 1778092264 | 13.33° C | 99% | 1007.2 hPa | 0 mm | - | 90 W/m² | - |
| 1778091963 | 13.89° C | 99% | 1007.2 hPa | 0 mm | - | 58 W/m² | - |
| 1778091659 | 13.89° C | 99% | 1007.1 hPa | 0 mm | - | 109 W/m² | - |
| 1778091357 | 13.89° C | 99% | 1007.3 hPa | 0 mm | - | 80 W/m² | - |
| 1778091054 | 13.89° C | 99% | 1007.3 hPa | 0 mm | - | 82 W/m² | - |
| 1778090750 | 13.33° C | 99% | 1007.4 hPa | 0 mm | - | 94 W/m² | - |
| 1778090447 | 13.89° C | 99% | 1007.3 hPa | 0 mm | - | 113 W/m² | - |
| 1778090143 | 13.89° C | 99% | 1007.2 hPa | 0 mm | - | 73 W/m² | - |
| 1778089840 | 13.89° C | 99% | 1007.1 hPa | 0 mm | - | 70 W/m² | - |
| 1778089539 | 13.89° C | 99% | 1007.3 hPa | 0 mm | - | 93 W/m² | - |
| 1778089234 | 13.89° C | 99% | 1007.3 hPa | 0 mm | - | 85 W/m² | - |
| 1778088932 | 13.89° C | 99% | 1007.3 hPa | 0 mm | - | 89 W/m² | - |
| 1778088629 | 13.89° C | 99% | 1007.3 hPa | 0 mm | - | 151 W/m² | - |
| 1778088326 | 14.44° C | 99% | 1007.2 hPa | 0 mm | - | 145 W/m² | - |
| 1778088022 | 14.44° C | 99% | 1007.4 hPa | 0 mm | - | 212 W/m² | - |
* Rain latest hour (hover to see other rain measurements)
** Current wind speed in m/s (hover to see current wind gust speed)